Weather History for Bay City, TX

Change the Weather History Date:

Friday, November 1, 2013

  Actual Average (KLBX) Record (KLBX)
Temperature  
Mean Temperature 69 °F -  
Max Temperature 81 °F 74 °F 87 °F (2012)
Min Temperature 57 °F 56 °F 44 °F (2005)
Cooling Degree Days 4    
Growing Degree Days 19 (Base 50)    
Moisture  
Dew Point 63 °F    
Average Humidity 84    
Maximum Humidity 100    
Minimum Humidity 46    
Precipitation  
Precipitation 0.00 in - - ()
Sea Level Pressure  
Sea Level Pressure 29.89 in    
Wind  
Wind Speed 2 mph (SE)    
Max Wind Speed 10 mph    
Max Gust Speed -    
Visibility 8 miles    
Events Fog    
Averages and records for this station are not official NWS values.
T = Trace of Precipitation, MM = Missing Value Source: NWS Daily Summary

Daily Weather History Graph

Daily Weather History Graph

Search for Another Location

Airport:

Trip Planner

Search our weather history database for the weather conditions in past years. The results will help you decide how hot, cold, wet, or windy it might be!

Date:

Astronomy

Nov. 01, 2013 Rise Set
Actual Time 7:36 AM CDT 6:37 PM CDT
Civil Twilight 7:11 AM CDT 7:01 PM CDT
Nautical Twilight 6:43 AM CDT 7:29 PM CDT
Astronomical Twilight 6:15 AM CDT 7:57 PM CDT
Moon 5:37 AM CDT (11/1) 5:24 PM CDT (11/1)
Length of Visible Light 11h 50m
Length of Day
11h 01m
Waning Crescent, 4% of the Moon is Illuminated
Nov 1
Waning Crescent
Nov 3
New
Nov 9
First Quarter
Nov 17
Full
Nov 25
Last Quarter

Hourly Weather History & Observations

Time (CDT) Temp. Heat Index Dew Point Humidity Pressure Visibility Wind Dir Wind Speed Gust Speed Precip Events Conditions
12:15 AM 64.2 °F - 63.9 °F 99% 29.90 in 0.5 mi Calm Calm - N/A Fog Fog
12:35 AM 63.1 °F - 62.8 °F 99% 29.90 in 0.5 mi Calm Calm - N/A Fog Fog
12:55 AM 62.6 °F - 62.4 °F 99% 29.90 in 0.5 mi Calm Calm - N/A Fog Fog
1:15 AM 62.4 °F - 62.1 °F 99% 29.90 in 0.5 mi Calm Calm - N/A Fog Fog
1:35 AM 61.7 °F - 61.3 °F 99% 29.90 in 0.2 mi Calm Calm - N/A Fog Fog
1:55 AM 61.3 °F - 61.0 °F 99% 29.89 in 0.5 mi Calm Calm - N/A Fog Fog
2:15 AM 61.2 °F - 60.8 °F 99% 29.89 in 0.5 mi Calm Calm - N/A Fog Fog
2:35 AM 60.8 °F - 60.3 °F 98% 29.88 in 0.2 mi Calm Calm - N/A Fog Fog
2:55 AM 60.4 °F - 60.1 °F 99% 29.87 in 0.5 mi NE 3.5 mph - N/A Fog Fog
3:15 AM 60.1 °F - 59.9 °F 99% 29.87 in 0.5 mi NE 3.5 mph - N/A Fog Fog
3:35 AM 60.3 °F - 60.1 °F 99% 29.87 in 0.2 mi Calm Calm - N/A Fog Fog
3:55 AM 60.3 °F - 60.1 °F 99% 29.87 in 0.2 mi Calm Calm - N/A Fog Fog
4:15 AM 59.5 °F - 59.4 °F 99% 29.86 in 0.8 mi Calm Calm - N/A   Overcast
4:35 AM 59.0 °F - 58.6 °F 99% 29.86 in 0.8 mi Calm Calm - N/A   Mostly Cloudy
4:55 AM 58.3 °F - 58.3 °F 100% 29.86 in 7.0 mi Calm Calm - N/A   Clear
5:15 AM 58.3 °F - 58.1 °F 99% 29.86 in 10.0 mi Calm Calm - N/A   Clear
5:35 AM 58.3 °F - 58.3 °F 100% 29.86 in 4.0 mi Calm Calm - N/A   Clear
5:55 AM 58.1 °F - 57.9 °F 99% 29.86 in 10.0 mi Calm Calm - N/A   Clear
6:15 AM 57.7 °F - 57.4 °F 99% 29.86 in 10.0 mi Calm Calm - N/A   Clear
6:35 AM 58.1 °F - 57.7 °F 99% 29.87 in 7.0 mi Calm Calm - N/A   Clear
6:55 AM 58.3 °F - 57.9 °F 99% 29.88 in 10.0 mi North 4.6 mph - N/A   Clear
7:15 AM 58.6 °F - 58.5 °F 99% 29.88 in 7.0 mi Calm Calm - N/A   Clear
7:35 AM 57.7 °F - 57.6 °F 99% 29.89 in 7.0 mi Calm Calm - N/A   Clear
7:55 AM 57.6 °F - 57.4 °F 99% 29.90 in 4.0 mi Calm Calm - N/A   Clear
8:15 AM 57.9 °F - 57.7 °F 99% 29.89 in 10.0 mi Calm Calm - N/A   Clear
8:35 AM 60.1 °F - 59.7 °F 99% 29.90 in 10.0 mi NE 3.5 mph - N/A   Clear
8:55 AM 62.2 °F - 62.1 °F 99% 29.90 in 10.0 mi ENE 3.5 mph - N/A   Clear
9:15 AM 64.4 °F - 64.0 °F 99% 29.91 in 10.0 mi Calm Calm - N/A   Clear
9:35 AM 66.6 °F - 64.8 °F 94% 29.92 in 10.0 mi Calm Calm - N/A   Clear
9:55 AM 68.9 °F - 65.3 °F 88% 29.93 in 10.0 mi ESE 4.6 mph - N/A   Clear
10:15 AM 71.2 °F - 65.5 °F 82% 29.93 in 10.0 mi ESE 5.8 mph - N/A   Clear
10:35 AM 73.4 °F - 64.4 °F 73% 29.93 in 10.0 mi East 8.1 mph - N/A   Unknown
10:55 AM 75.2 °F - 64.2 °F 69% 29.94 in 10.0 mi SE 8.1 mph - N/A   Clear
11:15 AM 76.1 °F - 65.1 °F 69% 29.94 in 10.0 mi ESE 6.9 mph - N/A   Clear
11:35 AM 76.8 °F - 65.7 °F 68% 29.94 in 10.0 mi ESE 8.1 mph - N/A   Clear
11:55 AM 77.9 °F - 65.1 °F 65% 29.93 in 10.0 mi SE 6.9 mph - N/A   Clear
12:15 PM 78.8 °F - 63.7 °F 60% 29.92 in 10.0 mi ESE 5.8 mph - N/A   Clear
12:35 PM 79.7 °F - 63.0 °F 56% 29.92 in 10.0 mi ESE 8.1 mph - N/A   Clear
12:55 PM 80.2 °F 81.4 °F 62.4 °F 54% 29.91 in 10.0 mi SE 10.4 mph - N/A   Clear
1:15 PM 80.8 °F 81.9 °F 62.4 °F 53% 29.90 in 10.0 mi ESE 9.2 mph - N/A   Clear
1:35 PM 81.0 °F 82.1 °F 62.2 °F 53% 29.89 in 10.0 mi SE 6.9 mph - N/A   Clear
1:55 PM 81.1 °F 82.0 °F 61.3 °F 51% 29.88 in 10.0 mi SSE 9.2 mph - N/A   Clear
2:15 PM 81.1 °F 81.6 °F 59.7 °F 48% 29.88 in 10.0 mi SSE 6.9 mph - N/A   Clear
2:35 PM 81.5 °F 81.7 °F 58.6 °F 46% 29.87 in 10.0 mi SE 8.1 mph - N/A   Clear
2:55 PM 81.7 °F 81.9 °F 59.0 °F 46% 29.85 in 10.0 mi SE 6.9 mph - N/A   Clear
3:15 PM 81.9 °F 82.1 °F 59.0 °F 46% 29.85 in 10.0 mi SSE 9.2 mph - N/A   Clear
4:55 PM 80.6 °F 81.8 °F 62.6 °F 54% 29.85 in 10.0 mi SSE 8.1 mph - N/A   Clear
5:15 PM 80.1 °F 81.7 °F 64.0 °F 58% 29.84 in 10.0 mi SSE 8.1 mph - N/A   Clear
5:35 PM 79.2 °F - 65.1 °F 62% 29.84 in 10.0 mi SSE 6.9 mph - N/A   Clear
5:55 PM 78.3 °F - 66.2 °F 66% 29.84 in 10.0 mi SSE 4.6 mph - N/A   Clear
6:15 PM 77.0 °F - 66.9 °F 71% 29.85 in 10.0 mi SSE 3.5 mph - N/A   Clear
6:35 PM 75.2 °F - 67.6 °F 77% 29.85 in 10.0 mi SSE 3.5 mph - N/A   Clear
6:55 PM 73.8 °F - 67.6 °F 81% 29.86 in 10.0 mi Calm Calm - N/A   Clear
7:15 PM 73.2 °F - 67.5 °F 82% 29.86 in 10.0 mi SE 3.5 mph - N/A   Clear
7:35 PM 72.3 °F - 67.5 °F 85% 29.87 in 10.0 mi Calm Calm - N/A   Clear
7:55 PM 71.2 °F - 67.3 °F 87% 29.88 in 10.0 mi Calm Calm - N/A   Clear
8:15 PM 71.1 °F - 67.5 °F 88% 29.90 in 10.0 mi Calm Calm - N/A   Clear
8:35 PM 70.2 °F - 67.6 °F 92% 29.90 in 10.0 mi Calm Calm - N/A   Clear
8:55 PM 69.1 °F - 67.1 °F 93% 29.91 in 10.0 mi Calm Calm - N/A   Clear
9:15 PM 68.9 °F - 67.3 °F 95% 29.91 in 10.0 mi Calm Calm - N/A   Clear
9:35 PM 69.1 °F - 67.3 °F 94% 29.92 in 10.0 mi Calm Calm - N/A   Clear
9:55 PM 68.7 °F - 67.1 °F 95% 29.92 in 10.0 mi Calm Calm - N/A   Clear
10:15 PM 68.2 °F - 66.6 °F 95% 29.93 in 10.0 mi Calm Calm - N/A   Scattered Clouds
10:35 PM 69.1 °F - 67.5 °F 95% 29.95 in 10.0 mi WNW 5.8 mph - N/A   Mostly Cloudy
10:55 PM 70.2 °F - 68.4 °F 94% 29.95 in 10.0 mi West 5.8 mph - N/A   Scattered Clouds
11:15 PM 70.5 °F - 68.5 °F 93% 29.97 in 10.0 mi NW 8.1 mph - N/A   Scattered Clouds
11:35 PM 70.9 °F - 68.7 °F 93% 29.97 in 10.0 mi NW 5.8 mph - N/A   Scattered Clouds
11:55 PM 70.7 °F - 67.1 °F 88% 29.98 in 10.0 mi NNW 9.2 mph - N/A   Clear